Content
SEND FEEDBACK

Daily
Averages
Monthly
Summary
United States of America

CHICAGO, ILLINOIS


Home > North America > United States > Illinois
Elevation: 205 meters     Latitude: 41 59N     Longitude: 087 54W

WEATHER
 
SELECT A DAY
Number of Records: 199,841;   Date Range: 7/8/95 - 12/26/14
 
SHARE

PRINT THIS DATA

[ ← Previous Day ]
WEATHER ALMANAC - 12 OCTOBER, 2013
[ Next Day → ]
[ °F ]   °C
Weather ElementAverageHighLow
Temperature17.4 °C22.2 °C (10:52 am)9.4 °C (11:52 pm)
Dewpoint13.2 °C17 °C (3:30 pm)7.2 °C (8:52 pm)
Humidity76.4 %88 % (3:30 pm)60 % (8:52 pm)
Barometer1016.9 hPa1022.7 hPa (11:52 pm)1015.2 hPa (2:52 am)
Wind Speed10.8 km/h22.2 km/h (10:52 am)
Wind Gust29.6 km/h (1:08 pm)
Weather ElementAverage
Visibility12.6 km
Wind DirectionSSE (173.2 °)

Weather ElementTotal
Precipitation2.79 mm
Heating Degree Days2.6 (Base 18.3)
Growing Degree Days5.8 (Base 10)
Averaged from 31 records on 12 October, 2013
WEATHER CONDITIONS BREAKOUT
WIND DIRECTION BREAKOUT
WEATHER BY HOUR - 12 OCTOBER, 2013
[ °F ]   °C
Local TimeTemperatureDewpointHumidityBarometerVisibilityWind DirectionWind SpeedGust SpeedPrecipitationEventsConditions
1:52 AM13.9 °C9.4 °C74 %1015.6 hPa16.1 kmSSE (160°)9.3 km/hClear
2:52 AM15 °C10.6 °C75 %1015.2 hPa16.1 kmSouth (170°)11.1 km/hClear
3:52 AM13.9 °C10 °C77 %1015.2 hPa16.1 kmSouth (170°)9.3 km/hClear
4:52 AM13.9 °C10.6 °C81 %1015.2 hPa16.1 kmSSE (160°)11.1 km/hClear
5:52 AM14.4 °C10.6 °C78 %1015.2 hPa16.1 kmSSE (150°)11.1 km/hClear
6:52 AM14.4 °C11.1 °C81 %1015.6 hPa16.1 kmSSE (160°)13 km/hClear
7:52 AM15.6 °C11.7 °C78 %1015.6 hPa14.5 kmSSE (160°)11.1 km/hClear
8:52 AM18.9 °C12.8 °C68 %1015.9 hPa16.1 kmSouth (180°)16.7 km/hScattered Clouds
9:52 AM20.6 °C13.3 °C63 %1015.6 hPa16.1 kmSSE (160°)20.4 km/hScattered Clouds
10:52 AM22.2 °C14.4 °C61 %1015.6 hPa16.1 kmSouth (170°)22.2 km/hMostly Cloudy
11:52 AM21.7 °C13.9 °C61 %1016.3 hPa16.1 kmSSW (200°)16.7 km/hOvercast
12:52 PM21.1 °C15 °C68 %1015.9 hPa14.5 kmSSW (200°)18.5 km/h0.25 mmOvercast
1:08 PM21 °C15 °C68 %1015.9 hPa12.9 kmSW (220°)16.7 km/h29.6 km/hOvercast
1:52 PM18.9 °C16.1 °C84 %1016.3 hPa4.8 kmSSW (210°)7.4 km/h0.76 mmRainLight Rain
1:56 PM19 °C16 °C83 %1016.3 hPa4.8 kmSSW (200°)9.3 km/h0.25 mmRain-ThunderstormLight Rain
2:10 PM19 °C16 °C83 %1015.9 hPa8 kmSouth (190°)13 km/h0.25 mmRain-ThunderstormLight Rain
2:18 PM19 °C16 °C83 %1015.6 hPa9.7 kmSouth (170°)14.8 km/h0.25 mmRainLight Rain
2:52 PM18.9 °C16.7 °C87 %1015.9 hPa8 kmSouth (190°)13 km/h0.76 mmRainLight Rain
3:30 PM19 °C17 °C88 %1016.3 hPa6.4 kmSSW (200°)11.1 km/h0 mmRainLight Rain
3:52 PM19.4 °C16.7 °C84 %1016.3 hPa6.4 kmSW (220°)9.3 km/h0.25 mmRainLight Rain
4:15 PM19 °C17 °C88 %1016.3 hPa6.4 kmSSW (210°)9.3 km/h0 mmOvercast
4:27 PM20 °C17 °C83 %1016.3 hPa8 kmSSW (210°)9.3 km/h0 mmHaze
4:52 PM20 °C16.7 °C81 %1016.6 hPa8 kmVariable11.1 km/h0 mmHaze
5:07 PM20 °C17 °C83 %1016.9 hPa8 kmSW (220°)9.3 km/hHaze
5:52 PM20 °C16.1 °C78 %1017.3 hPa9.7 kmSW (230°)7.4 km/hHaze
6:52 PM18.3 °C12.2 °C68 %1017.9 hPa16.1 kmWest (270°)5.6 km/hClear
7:52 PM16.1 °C8.9 °C62 %1019 hPa16.1 kmWNW (290°)7.4 km/hClear
8:52 PM15 °C7.2 °C60 %1020 hPa16.1 kmWNW (300°)9.3 km/hClear
9:52 PM12.8 °C7.8 °C72 %1021 hPa16.1 kmCalmClear
10:52 PM10.6 °C7.8 °C83 %1021.7 hPa16.1 kmCalmClear
11:52 PM9.4 °C7.2 °C86 %1022.7 hPa16.1 kmCalmClear
Hourly data recorded from KPWK, located 0 kilometers away from Chicago, Illinois







STORIES FROM OUR PARTNERS